Location: Unspecified
(0.0000°N, 0.0000°E)
Time: 21:38:14
(UTC+01:00)

Haruka - Visible Passes

Search period start: 25 November 2014 00:00
Search period end: 05 December 2014 00:00
Orbit: 533 x 21245 km, 31.2° (Epoch: 25 November)

Date Brightness Start Highest point End Pass type
(mag) Time Alt. Az. Time Alt. Az. Time Alt. Az.
25 Nov 7.5 14:54:03 10° WNW 19:08:26 47° SW 19:52:41 10° SE visible
26 Nov 7.2 16:25:18 10° WNW 20:41:21 31° SW 21:01:47 10° SSE visible
27 Nov 6.1 03:43:15 11° NE 03:43:15 11° NE 03:43:29 10° NE visible
27 Nov 6.8 21:14:42 10° WSW 22:00:48 20° SSW 22:10:38 10° SSE visible
28 Nov 5.1 04:48:50 23° N 04:48:50 23° N 04:55:42 10° NE visible
28 Nov 6.6 23:07:37 10° SW 23:15:27 14° S 23:17:13 13° S visible
29 Nov 5.5 05:54:25 12° NW 05:59:26 21° N 06:14:05 10° NE visible
01 Dec 7.3 15:18:16 10° WNW 19:40:42 37° SW 20:10:23 10° SE visible
02 Dec 6.9 17:06:21 10° WNW 21:05:39 25° SSW 21:19:38 10° SSE visible
03 Dec 6.1 04:00:17 12° NNE 04:00:17 12° NNE 04:01:16 10° NE visible
03 Dec 6.5 22:03:31 10° SW 22:22:11 18° SSW 22:27:54 13° SSE visible
04 Dec 5.6 05:05:51 17° N 05:06:43 17° N 05:14:49 10° NE visible
04 Dec 6.6 23:28:24 10° SW 23:33:18 15° SSW 23:33:18 15° SSW visible
